• în Republica Moldova
  • Lista ţărilor
  • Pe 7 zile
  • Temperatura apei
  • Hartă satelitară
  • Meteo pe hartă
  • Widget-uri
  • user-avatar
    Intrare

    Meteo pe oră la Townsville

    Astăzi, 18 Decembrie, Marţi

    Timp Temperatura Precipitaţii Vânt Presiune Umiditate
    00:00 +29°C° 0 mm 1 m/s 748 mmHg 75%
    01:00 +28°C° 0 mm 1 m/s 748 mmHg 76%
    02:00 +28°C° 0 mm 1 m/s 748 mmHg 77%
    03:00 +28°C° 0 mm 1 m/s 748 mmHg 77%
    04:00 +28°C° 0 mm 1 m/s 747 mmHg 80%
    05:00 +29°C° 0 mm 1 m/s 748 mmHg 78%
    06:00 +29°C° 0 mm 1 m/s 748 mmHg 76%
    07:00 +30°C° 0 mm 2 m/s 749 mmHg 74%
    08:00 +32°C° 0 mm 2 m/s 749 mmHg 66%
    09:00 +35°C° 0 mm 2 m/s 749 mmHg 58%
    10:00 +37°C° 0 mm 2 m/s 749 mmHg 48%
    11:00 +38°C° 0 mm 2 m/s 748 mmHg 45%
    12:00 +39°C° 0 mm 3 m/s 748 mmHg 42%
    13:00 +41°C° 0 mm 4 m/s 748 mmHg 39%
    14:00 +40°C° 0 mm 4 m/s 748 mmHg 44%
    15:00 +38°C° 0 mm 4 m/s 747 mmHg 48%
    16:00 +37°C° 0 mm 3 m/s 747 mmHg 49%
    17:00 +35°C° 0 mm 4 m/s 747 mmHg 58%
    18:00 +33°C° 0 mm 4 m/s 747 mmHg 68%
    19:00 +32°C° 0 mm 4 m/s 748 mmHg 78%
    20:00 +30°C° 0 mm 4 m/s 748 mmHg 82%
    21:00 +29°C° 0 mm 4 m/s 749 mmHg 86%
    22:00 +28°C° 0 mm 4 m/s 749 mmHg 90%
    23:00 +28°C° 0 mm 3 m/s 749 mmHg 91%

    Mâine, 19 Decembrie, Miercuri

    Timp Temperatura Precipitaţii Vânt Presiune Umiditate
    00:00 +28°C° 0 mm 3 m/s 749 mmHg 91%
    01:00 +28°C° 0 mm 3 m/s 749 mmHg 92%
    02:00 +28°C° 0 mm 3 m/s 749 mmHg 92%
    03:00 +27°C° 0 mm 2 m/s 749 mmHg 93%
    04:00 +27°C° 0 mm 2 m/s 749 mmHg 94%
    05:00 +28°C° 0 mm 2 m/s 749 mmHg 91%
    06:00 +28°C° 0 mm 2 m/s 750 mmHg 88%
    07:00 +29°C° 0 mm 2 m/s 750 mmHg 85%
    08:00 +31°C° 0 mm 2 m/s 750 mmHg 74%
    09:00 +34°C° 0 mm 2 m/s 750 mmHg 64%
    10:00 +36°C° 0 mm 2 m/s 750 mmHg 54%
    11:00 +38°C° 0 mm 2 m/s 750 mmHg 49%
    12:00 +39°C° 0 mm 3 m/s 749 mmHg 44%
    13:00 +40°C° 0 mm 3 m/s 749 mmHg 39%
    14:00 +39°C° 0 mm 3 m/s 748 mmHg 42%
    15:00 +38°C° 0 mm 4 m/s 748 mmHg 46%
    16:00 +37°C° 0 mm 4 m/s 747 mmHg 49%
    17:00 +35°C° 0 mm 4 m/s 748 mmHg 61%
    18:00 +33°C° 0 mm 4 m/s 748 mmHg 74%
    19:00 +30°C° 0 mm 3 m/s 748 mmHg 86%
    20:00 +29°C° 0 mm 3 m/s 749 mmHg 87%
    21:00 +29°C° 0 mm 3 m/s 750 mmHg 87%
    22:00 +29°C° 0 mm 3 m/s 750 mmHg 88%
    23:00 +29°C° 0 mm 3 m/s 750 mmHg 88%

    Poimâine, 20 Decembrie, Joi

    Timp Temperatura Precipitaţii Vânt Presiune Umiditate
    00:00 +28°C° 0 mm 2 m/s 750 mmHg 88%
    01:00 +28°C° 0 mm 2 m/s 750 mmHg 88%
    02:00 +28°C° 0 mm 2 m/s 750 mmHg 89%
    03:00 +28°C° 0 mm 1 m/s 749 mmHg 90%
    04:00 +27°C° 0 mm 1 m/s 749 mmHg 90%
    05:00 +28°C° 0 mm 1 m/s 749 mmHg 87%
    06:00 +29°C° 0 mm 1 m/s 750 mmHg 83%
    07:00 +29°C° 0 mm 1 m/s 750 mmHg 79%
    08:00 +31°C° 0 mm 1 m/s 750 mmHg 71%
    09:00 +33°C° 0 mm 1 m/s 750 mmHg 62%
    10:00 +35°C° 0 mm 1 m/s 750 mmHg 53%
    11:00 +37°C° 0 mm 2 m/s 749 mmHg 50%
    12:00 +38°C° 0 mm 2 m/s 749 mmHg 47%
    13:00 +39°C° 0 mm 3 m/s 748 mmHg 43%
    14:00 +38°C° 0 mm 3 m/s 748 mmHg 48%
    15:00 +37°C° 0 mm 3 m/s 747 mmHg 52%
    16:00 +37°C° 0 mm 4 m/s 746 mmHg 57%
    17:00 +35°C° 0 mm 3 m/s 747 mmHg 65%
    18:00 +33°C° 0 mm 3 m/s 747 mmHg 74%
    19:00 +30°C° 0 mm 3 m/s 748 mmHg 83%
    20:00 +30°C° 0 mm 3 m/s 748 mmHg 85%
    21:00 +29°C° 0 mm 3 m/s 749 mmHg 87%
    22:00 +29°C° 0 mm 2 m/s 749 mmHg 89%
    23:00 +29°C° 0 mm 2 m/s 749 mmHg 90%

    21 Decembrie, Vineri

    Timp Temperatura Precipitaţii Vânt Presiune Umiditate
    00:00 +28°C° 0 mm 2 m/s 749 mmHg 91%
    01:00 +28°C° 0 mm 2 m/s 748 mmHg 92%
    02:00 +28°C° 0 mm 2 m/s 748 mmHg 93%
    03:00 +28°C° 0 mm 1 m/s 748 mmHg 94%
    04:00 +27°C° 0 mm 1 m/s 747 mmHg 95%
    05:00 +28°C° 0 mm 1 m/s 748 mmHg 91%
    06:00 +29°C° 0 mm 1 m/s 748 mmHg 87%
    07:00 +29°C° 0 mm 1 m/s 749 mmHg 83%
    08:00 +32°C° 0 mm 1 m/s 749 mmHg 73%
    09:00 +35°C° 0 mm 1 m/s 749 mmHg 62%
    10:00 +37°C° 0 mm 1 m/s 749 mmHg 51%
    11:00 +39°C° 0 mm 1 m/s 748 mmHg 49%
    12:00 +39°C° 0 mm 2 m/s 747 mmHg 47%
    13:00 +39°C° 0 mm 3 m/s 747 mmHg 45%
    14:00 +39°C° 0 mm 3 m/s 746 mmHg 49%
    15:00 +38°C° 0 mm 3 m/s 746 mmHg 52%
    16:00 +37°C° 0 mm 3 m/s 745 mmHg 55%
    17:00 +36°C° 0 mm 3 m/s 746 mmHg 63%
    18:00 +34°C° 0 mm 3 m/s 746 mmHg 72%
    19:00 +31°C° 0 mm 3 m/s 747 mmHg 80%
    20:00 +30°C° 0 mm 3 m/s 747 mmHg 81%
    21:00 +30°C° 0 mm 3 m/s 748 mmHg 83%
    22:00 +29°C° 0 mm 3 m/s 748 mmHg 84%
    23:00 +29°C° 0 mm 3 m/s 748 mmHg 86%

    22 Decembrie, Sâmbătă

    Timp Temperatura Precipitaţii Vânt Presiune Umiditate
    00:00 +29°C° 0 mm 3 m/s 748 mmHg 87%
    01:00 +29°C° 0 mm 3 m/s 747 mmHg 88%
    02:00 +29°C° 0 mm 3 m/s 747 mmHg 89%
    03:00 +28°C° 0 mm 3 m/s 747 mmHg 90%
    04:00 +28°C° 0 mm 3 m/s 746 mmHg 91%
    05:00 +29°C° 0 mm 3 m/s 747 mmHg 90%
    06:00 +29°C° 0 mm 3 m/s 747 mmHg 88%
    07:00 +30°C° 0 mm 3 m/s 748 mmHg 87%
    08:00 +33°C° 0 mm 3 m/s 748 mmHg 78%
    09:00 +35°C° 0 mm 3 m/s 748 mmHg 68%
    10:00 +37°C° 0 mm 3 m/s 748 mmHg 59%
    11:00 +38°C° 0 mm 3 m/s 748 mmHg 55%
    12:00 +39°C° 0 mm 3 m/s 747 mmHg 51%
    13:00 +42°C° 0 mm 4 m/s 747 mmHg 46%
    14:00 +41°C° 0 mm 4 m/s 746 mmHg 50%
    15:00 +40°C° 0 mm 4 m/s 746 mmHg 55%
    16:00 +38°C° 0 mm 4 m/s 745 mmHg 59%
    17:00 +36°C° 0 mm 4 m/s 746 mmHg 68%
    18:00 +34°C° 0 mm 4 m/s 746 mmHg 78%
    19:00 +32°C° 0 mm 4 m/s 746 mmHg 87%
    20:00 +32°C° 0 mm 4 m/s 747 mmHg 87%
    21:00 +30°C° 0 mm 4 m/s 747 mmHg 87%
    22:00 +30°C° 0 mm 4 m/s 748 mmHg 87%
    23:00 +30°C° 1.1 mm 3 m/s 748 mmHg 88%

    23 Decembrie, Duminică

    Timp Temperatura Precipitaţii Vânt Presiune Umiditate
    00:00 +30°C° 1.1 mm 2 m/s 747 mmHg 88%
    01:00 +30°C° 1.1 mm 2 m/s 747 mmHg 88%
    02:00 +29°C° 1.4 mm 2 m/s 747 mmHg 88%
    03:00 +29°C° 1.4 mm 3 m/s 747 mmHg 88%
    04:00 +29°C° 1.4 mm 3 m/s 746 mmHg 88%
    05:00 +30°C° 0.2 mm 3 m/s 747 mmHg 88%
    06:00 +30°C° 0.2 mm 3 m/s 747 mmHg 87%
    07:00 +30°C° 0.2 mm 3 m/s 748 mmHg 87%
    08:00 +33°C° 2.4 mm 3 m/s 748 mmHg 80%
    09:00 +34°C° 2.4 mm 3 m/s 748 mmHg 74%
    10:00 +35°C° 2.4 mm 2 m/s 749 mmHg 68%
    11:00 +36°C° 0.5 mm 3 m/s 748 mmHg 63%
    12:00 +37°C° 0.5 mm 3 m/s 748 mmHg 58%
    13:00 +38°C° 0.5 mm 3 m/s 747 mmHg 53%
    14:00 +37°C° 0 mm 3 m/s 747 mmHg 56%
    15:00 +37°C° 0 mm 4 m/s 747 mmHg 59%
    16:00 +36°C° 0 mm 4 m/s 746 mmHg 63%
    17:00 +34°C° 0.2 mm 4 m/s 747 mmHg 70%
    18:00 +33°C° 0.2 mm 3 m/s 747 mmHg 77%
    19:00 +30°C° 0.2 mm 3 m/s 748 mmHg 85%
    20:00 +30°C° 0.9 mm 3 m/s 749 mmHg 86%
    21:00 +29°C° 0.9 mm 4 m/s 749 mmHg 87%
    22:00 +29°C° 0.9 mm 4 m/s 750 mmHg 89%
    23:00 +29°C° 2.1 mm 4 m/s 750 mmHg 90%
    Arată mai mult